Time,TemperatureF,DewpointF,PressureIn,WindDirection,WindDirectionDegrees,WindSpeedMPH,WindSpeedGustMPH,Humidity,HourlyPrecipIn,Conditions,Clouds,dailyrainin,SoftwareType,DateUTC
2013-07-29 00:02:00,69.0,55.0,29.72,NNE,17,0.0,-999.0,62,-99.99,,,-99.99,,2013-07-29 07:02:00,
2013-07-29 00:12:00,70.0,53.0,29.71,NW,308,0.0,-999.0,55,-99.99,,,-99.99,,2013-07-29 07:12:00,
2013-07-29 00:22:00,72.0,51.0,29.71,SW,216,3.0,-999.0,48,-99.99,,,-99.99,,2013-07-29 07:22:00,
2013-07-29 00:33:00,72.0,51.0,29.71,SW,216,3.0,-999.0,48,-99.99,,,-99.99,,2013-07-29 07:33:00,
2013-07-29 00:43:00,74.0,50.0,29.72,SSW,202,5.0,-999.0,43,-99.99,,,-99.99,,2013-07-29 07:43:00,
2013-07-29 00:53:00,74.0,50.0,29.72,SSW,202,5.0,-999.0,43,-99.99,,,-99.99,,2013-07-29 07:53:00,
2013-07-29 01:02:00,75.0,48.0,29.72,West,267,5.0,-999.0,39,-99.99,,,-99.99,,2013-07-29 08:02:00,
2013-07-29 01:12:00,76.0,48.0,29.72,SSE,165,6.0,-999.0,37,-99.99,,,-99.99,,2013-07-29 08:12:00,
2013-07-29 01:22:00,76.0,48.0,29.72,SSE,165,6.0,-999.0,37,-99.99,,,-99.99,,2013-07-29 08:22:00,
2013-07-29 01:33:00,76.0,48.0,29.72,SW,220,4.0,-999.0,37,-99.99,,,-99.99,,2013-07-29 08:33:00,
2013-07-29 01:42:00,75.0,53.0,29.72,SSW,205,2.0,-999.0,46,-99.99,,,-99.99,,2013-07-29 08:42:00,
2013-07-29 01:52:00,75.0,53.0,29.72,SSW,205,2.0,-999.0,46,-99.99,,,-99.99,,2013-07-29 08:52:00,
2013-07-29 02:02:00,74.0,56.0,29.72,ENE,70,0.0,-999.0,54,-99.99,,,-99.99,,2013-07-29 09:02:00,
2013-07-29 02:12:00,74.0,56.0,29.72,ENE,70,0.0,-999.0,54,-99.99,,,-99.99,,2013-07-29 09:12:00,
2013-07-29 02:22:00,74.0,56.0,29.72,ENE,70,0.0,-999.0,54,-99.99,,,-99.99,,2013-07-29 09:22:00,
2013-07-29 02:33:00,71.0,54.0,29.72,ENE,71,0.0,-999.0,56,-99.99,,,-99.99,,2013-07-29 09:33:00,
2013-07-29 02:43:00,71.0,56.0,29.72,ENE,71,0.0,-999.0,59,-99.99,,,-99.99,,2013-07-29 09:43:00,
2013-07-29 02:53:00,70.0,56.0,29.72,ENE,71,0.0,-999.0,61,-99.99,,,-99.99,,2013-07-29 09:53:00,
2013-07-29 03:02:00,70.0,56.0,29.72,ENE,71,0.0,-999.0,61,-99.99,,,-99.99,,2013-07-29 10:02:00,
2013-07-29 03:13:00,69.0,56.0,29.72,ENE,71,0.0,-999.0,63,-99.99,,,-99.99,,2013-07-29 10:13:00,
2013-07-29 03:22:00,69.0,56.0,29.72,ENE,71,0.0,-999.0,63,-99.99,,,-99.99,,2013-07-29 10:22:00,
2013-07-29 03:32:00,68.0,55.0,29.72,ENE,71,0.0,-999.0,64,-99.99,,,-99.99,,2013-07-29 10:32:00,
2013-07-29 03:44:00,67.0,55.0,29.72,ENE,71,0.0,-999.0,65,-99.99,,,-99.99,,2013-07-29 10:44:00,
2013-07-29 04:03:00,67.0,55.0,29.72,ENE,71,0.0,-999.0,66,-99.99,,,-99.99,,2013-07-29 11:03:00,
2013-07-29 04:12:00,66.0,55.0,29.72,ENE,71,0.0,-999.0,68,-99.99,,,-99.99,,2013-07-29 11:12:00,
2013-07-29 04:22:00,66.0,55.0,29.72,ENE,71,0.0,-999.0,68,-99.99,,,-99.99,,2013-07-29 11:22:00,
2013-07-29 04:33:00,66.0,55.0,29.72,ENE,71,0.0,-999.0,68,-99.99,,,-99.99,,2013-07-29 11:33:00,
2013-07-29 04:44:00,65.0,55.0,29.72,ENE,71,0.0,-999.0,70,-99.99,,,-99.99,,2013-07-29 11:44:00,
2013-07-29 04:53:00,65.0,55.0,29.72,ENE,71,0.0,-999.0,70,-99.99,,,-99.99,,2013-07-29 11:53:00,
2013-07-29 05:13:00,64.0,54.0,29.72,ENE,71,0.0,-999.0,69,-99.99,,,-99.99,,2013-07-29 12:13:00,
2013-07-29 05:33:00,64.0,54.0,29.73,ENE,71,0.0,-999.0,69,-99.99,,,-99.99,,2013-07-29 12:33:00,
2013-07-29 05:44:00,64.0,54.0,29.74,ENE,71,0.0,-999.0,70,-99.99,,,-99.99,,2013-07-29 12:44:00,
2013-07-29 05:53:00,64.0,55.0,29.75,ENE,71,0.0,-999.0,72,-99.99,,,-99.99,,2013-07-29 12:53:00,
2013-07-29 06:33:00,63.0,55.0,29.76,ENE,71,0.0,-999.0,76,-99.99,,,-99.99,,2013-07-29 13:33:00,
2013-07-29 06:53:00,63.0,56.0,29.76,ENE,71,0.0,-999.0,79,-99.99,,,-99.99,,2013-07-29 13:53:00,
2013-07-29 07:12:00,64.0,57.0,29.77,ENE,71,0.0,-999.0,79,-99.99,,,-99.99,,2013-07-29 14:12:00,
2013-07-29 07:33:00,66.0,58.0,29.77,ENE,67,0.0,-999.0,75,-99.99,,,-99.99,,2013-07-29 14:33:00,
2013-07-29 07:42:00,68.0,57.0,29.78,ENE,67,0.0,-999.0,69,-99.99,,,-99.99,,2013-07-29 14:42:00,
2013-07-29 08:02:00,70.0,56.0,29.79,ENE,67,0.0,-999.0,62,-99.99,,,-99.99,,2013-07-29 15:02:00,
2013-07-29 08:12:00,72.0,57.0,29.79,ENE,67,0.0,-999.0,59,-99.99,,,-99.99,,2013-07-29 15:12:00,
2013-07-29 08:34:00,73.0,56.0,29.79,ENE,67,0.0,-999.0,56,-99.99,,,-99.99,,2013-07-29 15:34:00,
2013-07-29 08:44:00,74.0,56.0,29.80,ENE,63,0.0,-999.0,54,-99.99,,,-99.99,,2013-07-29 15:44:00,
2013-07-29 09:02:00,75.0,56.0,29.80,ENE,63,0.0,-999.0,52,-99.99,,,-99.99,,2013-07-29 16:02:00,
2013-07-29 09:12:00,76.0,56.0,29.80,ENE,61,0.0,-999.0,50,-99.99,,,-99.99,,2013-07-29 16:12:00,
2013-07-29 09:34:00,78.0,57.0,29.80,NE,44,0.0,-999.0,48,-99.99,,,-99.99,,2013-07-29 16:34:00,
2013-07-29 09:44:00,79.0,56.0,29.80,NNE,30,0.0,-999.0,46,-99.99,,,-99.99,,2013-07-29 16:44:00,
2013-07-29 09:53:00,79.0,56.0,29.80,NNE,30,0.0,-999.0,46,-99.99,,,-99.99,,2013-07-29 16:53:00,
2013-07-29 10:03:00,80.0,56.0,29.80,NNE,30,0.0,-999.0,44,-99.99,,,-99.99,,2013-07-29 17:03:00,
2013-07-29 10:22:00,80.0,55.0,29.80,NNW,339,1.0,-999.0,43,-99.99,,,-99.99,,2013-07-29 17:22:00,
2013-07-29 10:34:00,81.0,58.0,29.80,NNE,19,0.0,-999.0,45,-99.99,,,-99.99,,2013-07-29 17:34:00,
2013-07-29 10:43:00,80.0,54.0,29.80,NNE,27,0.0,-999.0,41,-99.99,,,-99.99,,2013-07-29 17:43:00,
2013-07-29 10:53:00,80.0,54.0,29.80,NNE,27,0.0,-999.0,41,-99.99,,,-99.99,,2013-07-29 17:53:00,
2013-07-29 11:02:00,81.0,56.0,29.81,NNE,27,0.0,-999.0,42,-99.99,,,-99.99,,2013-07-29 18:02:00,
2013-07-29 11:13:00,81.0,54.0,29.81,NNE,27,0.0,-999.0,40,-99.99,,,-99.99,,2013-07-29 18:13:00,
2013-07-29 11:22:00,81.0,54.0,29.81,NNE,27,0.0,-999.0,40,-99.99,,,-99.99,,2013-07-29 18:22:00,
2013-07-29 11:32:00,81.0,53.0,29.81,NNE,28,0.0,-999.0,38,-99.99,,,-99.99,,2013-07-29 18:32:00,
2013-07-29 11:43:00,83.0,55.0,29.81,NE,44,0.0,-999.0,38,-99.99,,,-99.99,,2013-07-29 18:43:00,
2013-07-29 12:02:00,82.0,55.0,29.80,NE,51,0.0,-999.0,39,-99.99,,,-99.99,,2013-07-29 19:02:00,
2013-07-29 12:13:00,84.0,58.0,29.81,NE,51,0.0,-999.0,41,-99.99,,,-99.99,,2013-07-29 19:13:00,
2013-07-29 12:22:00,84.0,58.0,29.81,NE,51,0.0,-999.0,41,-99.99,,,-99.99,,2013-07-29 19:22:00,
2013-07-29 12:34:00,84.0,56.0,29.80,NW,319,1.0,-999.0,38,-99.99,,,-99.99,,2013-07-29 19:34:00,
2013-07-29 12:44:00,84.0,56.0,29.80,NE,39,0.0,-999.0,38,-99.99,,,-99.99,,2013-07-29 19:44:00,
2013-07-29 13:03:00,85.0,57.0,29.80,NE,45,1.0,-999.0,38,-99.99,,,-99.99,,2013-07-29 20:03:00,
2013-07-29 13:12:00,86.0,56.0,29.79,NNE,13,1.0,-999.0,36,-99.99,,,-99.99,,2013-07-29 20:12:00,
2013-07-29 13:33:00,87.0,57.0,29.79,North,360,0.0,-999.0,36,-99.99,,,-99.99,,2013-07-29 20:33:00,
2013-07-29 13:44:00,88.0,55.0,29.79,NNE,12,1.0,-999.0,33,-99.99,,,-99.99,,2013-07-29 20:44:00,
2013-07-29 13:54:00,88.0,55.0,29.79,NNE,12,1.0,-999.0,33,-99.99,,,-99.99,,2013-07-29 20:54:00,
2013-07-29 14:02:00,88.0,54.0,29.78,WNW,288,0.0,-999.0,32,-99.99,,,-99.99,,2013-07-29 21:02:00,
2013-07-29 14:13:00,89.0,56.0,29.78,South,173,1.0,-999.0,33,-99.99,,,-99.99,,2013-07-29 21:13:00,
2013-07-29 14:22:00,89.0,56.0,29.78,South,173,1.0,-999.0,33,-99.99,,,-99.99,,2013-07-29 21:22:00,
2013-07-29 14:33:00,89.0,55.0,29.78,SE,140,1.0,-999.0,32,-99.99,,,-99.99,,2013-07-29 21:33:00,
2013-07-29 14:43:00,89.0,53.0,29.78,SE,138,1.0,-999.0,29,-99.99,,,-99.99,,2013-07-29 21:43:00,
2013-07-29 14:52:00,89.0,53.0,29.78,SE,138,1.0,-999.0,29,-99.99,,,-99.99,,2013-07-29 21:52:00,
2013-07-29 15:02:00,89.0,54.0,29.78,NE,38,1.0,-999.0,30,-99.99,,,-99.99,,2013-07-29 22:02:00,
2013-07-29 15:12:00,89.0,54.0,29.77,WNW,299,0.0,-999.0,31,-99.99,,,-99.99,,2013-07-29 22:12:00,
2013-07-29 15:33:00,89.0,53.0,29.76,SW,229,0.0,-999.0,29,-99.99,,,-99.99,,2013-07-29 22:33:00,
2013-07-29 15:43:00,90.0,52.0,29.76,NW,315,2.0,-999.0,28,-99.99,,,-99.99,,2013-07-29 22:43:00,
2013-07-29 15:53:00,90.0,52.0,29.76,NW,315,2.0,-999.0,28,-99.99,,,-99.99,,2013-07-29 22:53:00,
2013-07-29 16:02:00,91.0,52.0,29.76,NW,318,1.0,-999.0,27,-99.99,,,-99.99,,2013-07-29 23:02:00,
2013-07-29 16:22:00,91.0,51.0,29.76,NW,324,0.0,-999.0,26,-99.99,,,-99.99,,2013-07-29 23:22:00,
2013-07-29 16:33:00,91.0,52.0,29.76,North,351,1.0,-999.0,27,-99.99,,,-99.99,,2013-07-29 23:33:00,
2013-07-29 16:43:00,90.0,50.0,29.76,North,360,1.0,-999.0,26,-99.99,,,-99.99,,2013-07-29 23:43:00,
2013-07-29 16:53:00,90.0,50.0,29.76,North,360,1.0,-999.0,26,-99.99,,,-99.99,,2013-07-29 23:53:00,
2013-07-29 17:13:00,88.0,51.0,29.76,North,351,2.0,-999.0,28,-99.99,,,-99.99,,2013-07-30 00:13:00,
2013-07-29 17:22:00,88.0,51.0,29.76,North,351,2.0,-999.0,28,-99.99,,,-99.99,,2013-07-30 00:22:00,
2013-07-29 17:32:00,88.0,50.0,29.76,West,278,2.0,-999.0,27,-99.99,,,-99.99,,2013-07-30 00:32:00,
2013-07-29 17:44:00,88.0,50.0,29.76,West,278,2.0,-999.0,27,-99.99,,,-99.99,,2013-07-30 00:44:00,
2013-07-29 17:52:00,88.0,50.0,29.76,West,278,2.0,-999.0,27,-99.99,,,-99.99,,2013-07-30 00:52:00,
2013-07-29 18:03:00,88.0,51.0,29.76,West,272,2.0,-999.0,28,-99.99,,,-99.99,,2013-07-30 01:03:00,
2013-07-29 18:15:00,88.0,51.0,29.76,North,360,1.0,-999.0,28,-99.99,,,-99.99,,2013-07-30 01:15:00,
2013-07-29 18:33:00,88.0,50.0,29.76,NNW,348,1.0,-999.0,27,-99.99,,,-99.99,,2013-07-30 01:33:00,
2013-07-29 18:43:00,87.0,49.0,29.76,West,271,1.0,-999.0,27,-99.99,,,-99.99,,2013-07-30 01:43:00,
2013-07-29 18:52:00,87.0,49.0,29.76,West,271,1.0,-999.0,27,-99.99,,,-99.99,,2013-07-30 01:52:00,
2013-07-29 19:02:00,86.0,49.0,29.77,West,279,0.0,-999.0,28,-99.99,,,-99.99,,2013-07-30 02:02:00,
2013-07-29 19:13:00,85.0,51.0,29.78,West,279,1.0,-999.0,31,-99.99,,,-99.99,,2013-07-30 02:13:00,
2013-07-29 19:33:00,83.0,50.0,29.78,West,271,2.0,-999.0,32,-99.99,,,-99.99,,2013-07-30 02:33:00,
2013-07-29 19:43:00,81.0,51.0,29.78,SW,223,1.0,-999.0,35,-99.99,,,-99.99,,2013-07-30 02:43:00,
2013-07-29 19:52:00,80.0,50.0,29.79,West,275,4.0,-999.0,35,-99.99,,,-99.99,,2013-07-30 02:52:00,
2013-07-29 20:13:00,79.0,50.0,29.79,West,267,3.0,-999.0,37,-99.99,,,-99.99,,2013-07-30 03:13:00,
2013-07-29 20:33:00,79.0,51.0,29.80,West,270,2.0,-999.0,38,-99.99,,,-99.99,,2013-07-30 03:33:00,
2013-07-29 20:43:00,78.0,50.0,29.81,West,267,2.0,-999.0,38,-99.99,,,-99.99,,2013-07-30 03:43:00,
2013-07-29 20:52:00,78.0,50.0,29.81,West,267,2.0,-999.0,38,-99.99,,,-99.99,,2013-07-30 03:52:00,
2013-07-29 21:02:00,79.0,49.0,29.82,West,265,3.0,-999.0,35,-99.99,,,-99.99,,2013-07-30 04:02:00,
2013-07-29 21:12:00,79.0,50.0,29.83,West,265,0.0,-999.0,36,-99.99,,,-99.99,,2013-07-30 04:12:00,
2013-07-29 21:22:00,79.0,50.0,29.83,West,265,0.0,-999.0,36,-99.99,,,-99.99,,2013-07-30 04:22:00,
2013-07-29 21:32:00,78.0,52.0,29.84,West,265,0.0,-999.0,41,-99.99,,,-99.99,,2013-07-30 04:32:00,
2013-07-29 21:43:00,78.0,53.0,29.84,West,265,0.0,-999.0,42,-99.99,,,-99.99,,2013-07-30 04:43:00,
2013-07-29 21:52:00,77.0,56.0,29.84,West,265,0.0,-999.0,48,-99.99,,,-99.99,,2013-07-30 04:52:00,
2013-07-29 22:02:00,77.0,56.0,29.84,West,265,0.0,-999.0,48,-99.99,,,-99.99,,2013-07-30 05:02:00,
2013-07-29 22:11:00,76.0,56.0,29.84,West,265,0.0,-999.0,50,-99.99,,,-99.99,,2013-07-30 05:11:00,
2013-07-29 22:32:00,75.0,57.0,29.84,West,265,0.0,-999.0,53,-99.99,,,-99.99,,2013-07-30 05:32:00,
2013-07-29 22:45:00,74.0,55.0,29.84,West,265,0.0,-999.0,52,-99.99,,,-99.99,,2013-07-30 05:45:00,
2013-07-29 22:52:00,73.0,54.0,29.84,West,265,0.0,-999.0,51,-99.99,,,-99.99,,2013-07-30 05:52:00,
2013-07-29 23:02:00,73.0,54.0,29.84,West,265,0.0,-999.0,51,-99.99,,,-99.99,,2013-07-30 06:02:00,
2013-07-29 23:12:00,72.0,52.0,29.83,West,265,0.0,-999.0,50,-99.99,,,-99.99,,2013-07-30 06:12:00,
2013-07-29 23:32:00,72.0,53.0,29.84,West,265,0.0,-999.0,52,-99.99,,,-99.99,,2013-07-30 06:32:00,
2013-07-29 23:43:00,72.0,54.0,29.83,West,265,0.0,-999.0,54,-99.99,,,-99.99,,2013-07-30 06:43:00,
2013-07-29 23:52:00,72.0,54.0,29.83,West,265,0.0,-999.0,54,-99.99,,,-99.99,,2013-07-30 06:52:00,